OpenBCM V1.13 (Linux)

Packet Radio Mailbox

DB0FHN

[JN59NK Nuernberg]

 Login: GUEST





  
LU9DCE > KEP      03.05.19 19:34l 243 Lines 12008 Bytes #999 (0) @ WW
BID : 23382_LU9DCE
Read: DF7EAV DK3UZ GUEST
Subj: TLE 03 05
Path: DB0FHN<DB0BLO<DB0ERF<DB0RES<IR2UBX<IW0QNL<JH4XSY<JE7YGF<GB7CIP<GB7YEW<
      LU9DCE
Sent: 190503/1800Z 23382@LU9DCE.TOR.BA.ARG.SOAM LinBPQ6.0.18

            __    _  _  ___  ____   ___  ____    ____  ____  ____
           (  )  / )( \/ _ \(    \ / __)(  __)  (  _ \(  _ \/ ___)
           / (_/\) \/ (\__  )) D (( (__  ) _)    ) _ ( ) _ (\___ \
           \____/\____/(___/(____/ \___)(____)  (____/(____/(____/
               ESTACION DE PACKET RADIO - BUENOS AIRES (GF05OM)
                   BOLETINES INFORMATIVOS PROGRAMADOS (BIP)
              28.125 USB @ 300 BAUD --- HELLOCODELINUX@GMAIL.COM

+----------------------------------------------------------------------------+
OSCAR 7
1  7530U 74089B   19122.78290779 -.00000038  00000-0  40200-4 0  9999
2  7530 101.7397  90.9332 0012587  77.7949 347.8662 12.53637925 34643
OSCAR 11 (UoSAT 2)
1 14781U 84021B   19122.87706182  .00000054  00000-0  12699-4 0  9990
2 14781  97.6149 149.7992 0009982 110.3829 249.8458 14.83080235891824
OSCAR 19 (LUSAT)
1 20442U 90005G   19123.09436287 -.00000020  00000-0  88577-5 0  9994
2 20442  98.6454  65.1815 0010675 289.2122  70.7907 14.32923529529704
EYESAT A
1 22825U 93061C   19123.53177916 -.00000019  00000-0  10756-4 0  9997
2 22825  98.9013 111.1212 0009246 128.7482 231.4527 14.30057075335358
ITAMSAT
1 22826U 93061D   19122.91464544  .00000004  00000-0  19455-4 0  9993
2 22826  98.8952 110.4875 0009879 120.6179 239.5978 14.30390508335465
RADIO ROSTO
1 23439U 94085A   19122.77622253 -.00000031  00000-0  31200-3 0  9990
2 23439  64.8158 191.9941 0147048 122.3427 239.1829 11.27567679  2764
JAS 2
1 24278U 96046B   19123.40903753 -.00000059  00000-0 -23269-4 0  9997
2 24278  98.5305 283.1120 0350315   0.2257 359.8982 13.53090620121541
TECHSAT 1B
1 25397U 98043D   19123.44490521 -.00000034  00000-0  43396-5 0  9993
2 25397  98.6857  64.1579 0001809 132.1297 228.0036 14.23664356 81297
ISS (ZARYA)
1 25544U 98067A   19123.63104193  .00002822  00000-0  52476-4 0  9995
2 25544  51.6415 222.6491 0000990 290.8541 206.7525 15.52622927168336
PCSAT
1 26931U 01043C   19123.21736224 -.00000022  00000-0  23497-4 0  9996
2 26931  67.0494 123.6060 0006184 279.5240  80.5162 14.30540151918328
SAUDISAT 1C
1 27607U 02058C   19123.52744216  .00000007  00000-0  21806-4 0  9992
2 27607  64.5546 190.7372 0082344 265.3300  93.8394 14.75540832880228
CUTE-1
1 27844U 03031E   19123.00797010  .00000051  00000-0  42466-4 0  9994
2 27844  98.6854 131.9167 0010238 159.7316 200.4270 14.22173340821655
CUBESAT XI 4
1 27848U 03031J   19122.98682145  .00000032  00000-0  34351-4 0  9999
2 27848  98.6932 132.3856 0009916 170.6884 189.4479 14.21768956821502
MOZHAYETS 4
1 27939U 03042A   19123.38734258  .00000105  00000-0  27363-4 0  9996
2 27939  98.0315 260.1259 0012303 208.8326 151.2209 14.66773664833757
CUBESAT XI 5
1 28895U 05043F   19123.36356097  .00000103  00000-0  28580-4 0  9990
2 28895  97.9517 267.7016 0017885 134.9724 225.2932 14.63654593720718
CUTE-1.7+APD II
1 32785U 08021C   19122.75734105  .00000205  00000-0  27780-4 0  9998
2 32785  97.5496 124.6868 0014506  62.1307 298.1378 14.88287493596706
DELFI C3
1 32789U 08021G   19122.73729158  .00001196  00000-0  84195-4 0  9995
2 32789  97.4691 173.8110 0010483 287.7703  72.2380 15.06841324599894
SEEDS
1 32791U 08021J   19122.98885538  .00000263  00000-0  32043-4 0  9999
2 32791  97.5290 130.8298 0014348  39.2918 320.9339 14.90788017597150
YUBELEINY
1 32953U 08025A   19123.44673716  .00000020  00000-0  75656-4 0  9996
2 32953  82.5048 173.5255 0018276 227.4531 132.5000 12.43089030496568
PRISM (HITOMI)
1 33493U 09002B   19122.72811504  .00001015  00000-0  94594-4 0  9998
2 33493  98.1231  41.9018 0014750 345.4595  14.6198 14.96603619558128
KKS-1 (KISEKI)
1 33499U 09002H   19122.74524737  .00000094  00000-0  21913-4 0  9996
2 33499  98.3534 319.9476 0009233   4.4734 355.6555 14.75428369552308
SWISSCUBE
1 35932U 09051B   19122.66905027  .00000112  00000-0  36328-4 0  9997
2 35932  98.5830 287.2780 0006640 316.3353  43.7318 14.56269197509933
BEESAT
1 35933U 09051C   19122.67493518  .00000095  00000-0  32487-4 0  9998
2 35933  98.5860 289.0196 0005102 334.1036  25.9905 14.56360373510042
ITUPSAT 1
1 35935U 09051E   19122.43055637  .00000073  00000-0  27910-4 0  9991
2 35935  98.5971 289.0092 0007355 327.9598  32.1150 14.55522308509763
XIWANG-1 (HOPE-1)
1 36122U 09072B   19122.76486075 -.00000045  00000-0 -74546-5 0  9992
2 36122 100.0727 127.3506 0008310  94.3195 265.8865 13.16349031450707
TISAT 1
1 36799U 10035E   19122.70792710  .00000419  00000-0  48454-4 0  9994
2 36799  98.1490 273.3207 0011175 236.2593 123.7560 14.91067022477763
JUGNU
1 37839U 11058B   19123.46698522  .00000309  00000-0  22900-4 0  9992
2 37839  19.9609 255.0906 0018817 177.1944 236.2653 14.12648884390714
SRMSAT
1 37841U 11058D   19122.97509296  .00000301  00000-0  20211-4 0  9994
2 37841  19.9731 313.8809 0011687  43.5908 114.2127 14.10630301390097
M-CUBED/EXP-1 PRIME
1 37855U 11061F   19122.60813774 +.00000834 +00000-0 +49908-4 0  9997
2 37855 101.7213 354.0283 0173772 216.3448 142.5861 15.05302896409228
HORYU 2
1 38340U 12025D   19122.65468691  .00000171  00000-0  33014-4 0  9992
2 38340  98.3339 159.8217 0010124 274.2477  85.7575 14.75699259374221
STRAND 1
1 39090U 13009E   19123.56019171  .00000053  00000-0  33658-4 0  9997
2 39090  98.4931 330.2817 0010319  68.7923 291.4364 14.35080979323777
SOMP
1 39134U 13015E   19123.50447963  .00000990  00000-0  54841-4 0  9998
2 39134  64.8625 170.0632 0026592 310.0254  49.8540 15.20032734333579
BEESAT 3
1 39135U 13015F   19122.61990473 +.00000797 +00000-0 +49519-4 0  9990
2 39135 064.8661 190.5730 0014166 322.4100 037.6034 15.17357811332717
BEESAT 2
1 39136U 13015G   19123.16688038  .00000763  00000-0  48566-4 0  9997
2 39136  64.8691 192.4870 0015187 312.1866  47.7970 15.16803047333118
CUBEBUG 1
1 39153U 13018D   19123.26593438  .00000149  00000-0  26431-4 0  9994
2 39153  97.9751 221.6606 0016642 354.0152   6.0859 14.80547633324944
ZACUBE
1 39417U 13066B   19122.75164180  .00000201  00000-0  31583-4 0  9994
2 39417  97.5651 138.8859 0058802 186.3770 173.6702 14.81091886294092
TRITON 1
1 39427U 13066M   19123.50924493  .00000178  00000-0  36598-4 0  9994
2 39427  97.6727 103.7502 0112767 313.9543  45.2402 14.67819096291566
GOMX 1
1 39430U 13066Q   19123.47544875  .00000215  00000-0  47680-4 0  9992
2 39430  97.7416  83.0849 0152467  40.3297 320.9081 14.59230010289868
HUMSAT D
1 39433U 13066T   19122.67319102  .00000527  00000-0  56655-4 0  9997
2 39433  97.5586 172.0878 0032481  97.5754 262.9157 14.92148291296068
CUBEBUG 2
1 39440U 13066AA  19123.51174522  .00000167  00000-0  30404-4 0  9998
2 39440  97.6021 124.6772 0078998 234.3451 125.0386 14.75831889293169
FUNCUBE 1
1 39444U 13066AE  19122.84558249  .00000248  00000-0  36836-4 0  9994
2 39444  97.5635 140.8734 0058137 180.1070 180.0141 14.81905371292994
UWE-3
1 39446U 13066AG  19122.71514647  .00000186  00000-0  31368-4 0  9992
2 39446  97.5824 130.8919 0069195 212.2725 147.4245 14.78365471292326
SPROUT
1 39770U 14029E   19123.27783976  .00000737  00000-0  87775-4 0  9992
2 39770  97.8792 226.8855 0007797 235.3250 124.7223 14.87280117267933
UNISAT 6
1 40012U 14033C   19122.63098812 +.00000170 +00000-0 +32909-4 0  9995
2 40012 097.7645 351.2522 0056922 249.3083 110.2018 14.73957226261750
DUCHIFAT 1
1 40021U 14033M   19123.36002978  .00000257  00000-0  32134-4 0  9990
2 40021  97.9237  47.8034 0012264 196.8215 163.2597 14.90589485264647
QB50P1
1 40025U 14033R   19123.32969215  .00000259  00000-0  33635-4 0  9995
2 40025  97.9067  43.0878 0011650 206.3917 153.6708 14.88913942264429
CHUBUSAT 1
1 40300U 14070C   19123.43746734  .00000584  00000-0  28488-4 0  9994
2 40300  97.3282 198.7839 0018953 216.4237 202.7064 15.22017016248983
NUDT-PHONESAT
1 40900U 15049B   19123.44823387  .00001836  00000-0  81939-4 0  9999
2 40900  97.4394 133.2428 0012684 356.3616 110.7713 15.22590507200621
ZDPS 2A
1 40901U 15049C   19123.52954375  .00000817  00000-0  43857-4 0  9996
2 40901  97.4605 130.0226 0014096  11.5066 107.7673 15.17641645200238
ZDPS 2B
1 40902U 15049D   19123.48872745  .00001238  00000-0  65137-4 0  9995
2 40902  97.4546 127.5473 0013947   8.9491 142.4531 15.17427525200209
XW-2A
1 40903U 15049E   19123.50586784  .00001730  00000-0  43010-4 0  9997
2 40903  97.3435 166.0000 0012363 319.6288 150.0843 15.41665593203139
KAITUO 1A
1 40904U 15049F   19123.45360006  .00000257  00000-0  17124-4 0  9999
2 40904  97.4671 126.2561 0015309  14.8309 132.1230 15.15316672199995
OBJECT G
1 40905U 15049G   19123.36181997  .00000108  00000-0  94592-5 0  9990
2 40905  97.4703 123.7776 0016171   9.5715  97.5470 15.14247231199861
XW-2C
1 40906U 15049H   19123.39023352  .00000697  00000-0  40127-4 0  9991
2 40906  97.4676 126.2388 0015108   7.3144  98.3969 15.15611611199982
XW-2D
1 40907U 15049J   19123.44922389  .00000436  00000-0  26296-4 0  9998
2 40907  97.4653 125.9742 0014483   4.7762 153.8563 15.15792010200006
LILACSAT 2
1 40908U 15049K   19123.39173248  .00000467  00000-0  29456-4 0  9990
2 40908  97.4785 124.8424 0016441   9.1257  98.5065 15.13764500199800
XW-2F
1 40910U 15049M   19123.45528487  .00000774  00000-0  42263-4 0  9991
2 40910  97.4627 127.8736 0014915 358.2625 165.6955 15.17191765200008
XW-2B
1 40911U 15049N   19123.41001163  .00000869  00000-0  48975-4 0  9996
2 40911  97.4684 126.5724 0014423   5.6544 132.5117 15.15726852199898
KAITUO 1B
1 40912U 15049P   19123.48846484  .00001197  00000-0  59523-4 0  9993
2 40912  97.4510 131.4444 0014479 340.8303 172.0941 15.19492320200294
TIANWANG 1C (TW-1C)
1 40926U 15051B   19123.39627538  .00010041  00000-0  15264-3 0  9999
2 40926  97.1416 169.6478 0008956 170.0419 317.7929 15.54703335202965
